Theta_e
282 279 277 276 278 278 277 277 279 277 277 275 274 274 275 276 275 277 278 280 277 280 277 276 276 275 278 279 280 278 277 278 278 279 280 280 280 280 279 279 280 280 282 282 283 284 285 286 285 285 285 286 286 286 287 287 287 287 288 287 284 284 283 284 282 281 280 279 279 279 279 278 278 279 279 279 278 277 278 278 277 278 278 277 278 278
284 281 278 278 279 279 278 277 277 276 276 276 275 274 278 276 279 280 281 278 280 281 278 275 277 280 279 279 277 277 279 280 280 280 280 281 280 280 279 280 280 281 281 283 287 287 286 286 285 284 285 287 287 287 286 287 288 286 285 285 284 284 284 282 282 284 281 279 279 278 279 278 278 281 279 277 278 278 280 278 278 278 277 276 277 278
280 279 279 279 279 277 277 277 276 276 276 276 279 276 278 278 276 277 277 277 279 281 277 275 279 281 282 279 278 277 279 278 279 281 280 280 280 280 279 279 280 280 282 284 285 284 284 285 285 284 285 286 287 288 288 287 286 285 284 284 284 284 284 283 283 282 281 280 283 279 279 279 278 277 278 277 280 280 277 277 277 278 276 276 276 276
280 279 280 279 278 279 278 276 277 277 277 278 279 279 278 277 278 278 277 278 279 280 279 278 277 282 277 276 277 278 278 278 277 277 279 280 281 282 281 281 282 281 282 285 286 286 284 284 284 284 284 286 285 286 286 286 286 286 287 284 284 284 283 283 286 286 281 282 281 280 279 279 278 278 280 278 278 277 276 277 277 277 276 276 276 276
277 280 278 277 278 280 278 278 276 278 279 277 276 276 277 277 278 277 277 277 277 279 278 277 277 275 274 282 283 282 276 279 279 279 278 279 279 280 280 280 281 283 284 285 285 284 284 284 286 286 286 284 285 286 287 287 287 288 286 285 284 284 284 283 289 284 283 282 279 279 279 279 278 278 276 277 276 277 278 278 276 276 276 276 276 276
279 280 279 278 277 277 279 278 279 276 279 276 278 279 279 277 279 277 277 276 272 278 279 277 275 274 276 275 277 280 277 280 277 279 282 282 280 279 281 282 282 283 283 285 286 287 286 286 286 285 284 285 285 286 287 288 288 287 286 285 284 283 283 284 285 283 283 283 279 278 277 276 276 276 275 276 276 276 276 277 276 276 276 276 276 274
281 280 280 278 278 278 278 278 278 277 277 277 279 278 278 278 278 277 277 278 276 278 279 276 278 273 275 275 277 276 275 279 280 279 281 281 281 279 282 282 282 283 284 283 283 283 283 285 284 285 285 286 286 287 287 286 287 286 286 285 284 283 283 283 283 283 286 280 279 279 278 278 277 276 276 275 276 276 276 277 276 276 276 275 275 276
281 280 278 277 276 276 277 279 279 277 277 280 278 276 277 279 279 278 276 277 278 277 281 277 275 274 274 277 277 275 276 278 280 282 282 282 282 281 281 282 282 282 283 285 285 285 284 284 285 287 287 286 287 288 285 286 286 286 286 284 284 283 285 282 283 282 283 281 279 278 278 279 277 277 277 276 276 275 278 275 276 275 275 276 275 275
280 279 279 280 276 278 278 279 280 278 278 279 278 279 279 279 278 276 277 275 276 278 277 275 276 275 272 276 276 276 281 278 280 282 283 283 282 282 282 282 282 283 283 283 285 285 285 285 285 286 287 288 287 286 286 286 287 286 285 285 283 282 283 282 282 283 281 283 280 279 278 278 280 277 277 277 279 277 278 274 275 275 275 275 275 275
281 281 281 279 276 279 279 279 278 280 279 280 279 278 278 277 277 278 276 279 274 276 272 276 276 273 275 275 275 276 280 278 280 281 282 282 282 282 282 283 283 282 282 281 283 284 284 285 285 286 286 285 286 286 286 285 284 284 283 284 283 282 282 282 281 283 281 281 282 278 278 278 278 279 278 277 276 276 275 274 275 274 274 274 275 274
281 283 283 281 280 281 278 279 278 279 280 279 281 280 278 276 276 275 274 275 272 269 271 275 274 276 273 277 278 282 282 279 279 277 277 277 278 280 281 282 283 283 283 283 283 283 284 283 283 282 284 286 284 283 284 285 284 284 283 283 282 282 282 281 281 281 280 280 280 279 278 278 277 277 277 276 275 274 274 274 274 274 274 274 274 274
281 280 281 280 283 280 280 280 280 279 279 281 279 280 277 278 275 275 267 269 270 267 268 273 274 273 274 275 280 278 277 276 280 282 281 281 281 282 281 282 282 282 283 284 283 284 284 283 283 281 283 284 285 283 284 284 284 284 283 282 283 282 281 280 281 281 280 280 280 279 278 278 277 277 277 276 275 275 275 275 274 274 274 274 275 274
280 280 280 281 284 281 279 281 280 278 277 279 277 275 275 269 271 272 265 275 267 274 277 274 273 274 274 278 281 280 279 278 277 280 282 280 282 282 281 282 282 281 281 283 283 284 284 284 285 284 284 283 284 285 285 285 284 284 283 282 282 283 282 281 280 280 280 280 279 279 278 278 278 277 276 276 276 275 275 275 274 274 274 274 274 274
280 278 280 281 281 283 281 280 276 279 277 278 278 274 271 266 261 266 259 262 267 274 276 274 273 275 276 279 280 281 281 280 280 279 279 280 281 282 282 281 280 281 281 282 283 283 284 285 285 285 285 285 285 285 286 285 285 284 284 282 282 284 282 281 280 279 279 279 279 279 278 278 278 277 276 276 276 276 275 275 275 275 274 274 274 274
273 276 280 280 279 280 278 279 280 280 278 279 277 277 277 268 272 269 266 275 273 274 275 273 273 273 277 283 282 279 281 280 279 278 278 278 278 279 279 279 280 280 281 281 282 284 285 285 285 286 285 285 285 285 285 285 285 284 284 283 283 283 282 281 280 280 279 279 279 278 278 278 277 277 277 276 277 276 275 275 275 275 275 274 274 274
280 275 279 281 281 280 279 280 279 278 277 277 277 276 275 277 273 274 266 266 266 267 271 272 275 275 282 283 282 279 278 278 277 277 278 279 279 278 280 282 282 283 283 282 282 283 284 285 285 285 285 285 285 286 285 285 285 284 284 284 283 283 283 281 281 280 280 279 279 278 278 278 278 280 278 278 278 277 276 275 275 275 275 275 275 274
275 278 279 279 280 279 280 279 280 280 278 280 278 275 278 277 274 267 267 265 267 267 268 268 277 279 280 283 282 279 278 280 278 277 278 280 279 278 281 283 283 283 283 283 283 284 285 284 284 285 285 285 285 285 286 286 286 286 285 284 283 283 283 282 281 281 280 280 279 279 278 278 277 278 278 277 277 277 276 276 275 275 275 275 275 275
278 276 279 279 280 281 279 279 279 279 280 279 275 279 278 275 273 275 275 264 262 269 273 271 275 277 277 280 281 284 282 285 281 280 279 279 279 281 284 284 284 285 285 284 283 284 284 284 285 285 285 285 286 286 286 287 287 286 286 285 285 284 283 282 281 281 280 280 279 279 278 278 277 278 278 278 277 276 276 275 275 275 275 275 275 275
278 277 278 279 279 281 279 281 280 281 280 281 279 280 282 274 279 272 269 271 270 267 267 273 271 273 275 280 280 284 281 284 284 282 281 282 282 282 284 284 284 284 283 284 285 285 285 285 285 286 286 286 286 286 287 287 287 286 286 286 285 285 285 284 283 282 281 280 280 280 279 278 278 277 277 278 277 276 276 275 275 275 275 275 275 276
277 275 277 279 279 279 279 279 275 280 280 275 278 279 278 277 273 272 274 270 273 268 270 272 271 278 278 276 281 282 280 281 281 281 284 284 283 283 283 284 284 284 284 284 285 285 286 286 286 286 286 286 286 286 286 286 286 286 286 286 285 285 284 283 282 282 281 280 280 280 279 279 278 278 277 277 277 276 276 276 275 275 275 275 275 275
277 278 274 280 277 278 277 275 278 275 277 279 278 274 275 272 277 276 270 274 276 264 266 265 272 275 280 279 280 282 282 282 281 283 283 284 284 284 283 283 284 284 284 285 285 285 286 286 286 286 285 286 285 285 285 285 286 286 286 286 286 285 284 283 283 282 282 281 280 280 279 279 278 277 277 277 277 276 276 276 276 275 275 275 275 275
275 278 278 274 275 277 276 278 277 275 276 277 277 277 277 274 274 275 274 271 264 272 268 264 274 276 282 281 281 282 283 281 280 280 282 283 284 284 285 284 283 284 285 284 285 284 285 285 285 285 284 284 284 285 285 286 285 285 286 286 286 285 285 284 284 282 282 281 281 280 280 279 278 278 277 277 276 276 276 275 275 276 275 275 275 275
280 272 272 274 275 278 277 278 276 274 273 274 277 280 275 274 273 268 272 272 269 270 269 269 270 277 283 280 280 280 280 280 281 279 281 283 284 284 285 285 284 283 284 285 285 285 285 285 285 285 285 285 285 285 285 285 285 286 286 286 286 285 286 285 285 284 282 281 281 280 280 279 278 277 277 276 276 276 276 276 275 275 275 275 275 275
285 274 274 273 269 273 276 272 270 274 275 273 272 269 275 279 279 274 275 275 271 269 270 267 268 278 282 279 279 279 279 280 281 279 281 283 284 284 285 286 286 286 286 285 285 285 285 284 284 284 284 285 285 285 285 285 285 286 286 286 286 285 286 286 285 284 282 281 281 280 279 279 279 277 277 276 276 276 276 276 275 275 275 275 275 274
279 276 276 271 274 272 276 274 276 274 272 272 275 275 275 275 271 267 268 267 273 271 271 273 269 271 283 280 280 280 280 282 284 283 280 283 286 286 286 287 287 286 286 287 287 286 285 284 284 285 285 285 285 285 285 285 285 285 286 286 286 286 286 286 285 284 282 281 281 280 279 279 278 278 277 277 277 276 276 276 275 275 275 275 274 274
277 277 276 276 272 273 274 270 274 275 276 276 275 275 275 276 273 274 278 269 273 271 271 269 271 279 282 283 284 283 283 286 288 287 285 282 284 286 287 287 287 287 287 286 287 287 287 286 285 285 285 285 285 285 286 286 285 285 285 286 286 286 286 286 285 284 283 281 281 280 280 279 279 278 278 278 277 277 276 276 275 275 275 275 274 274
272 272 273 272 270 271 272 275 276 279 276 278 276 273 276 275 275 274 272 271 272 268 273 275 276 281 284 286 284 286 285 285 287 288 287 288 287 287 286 286 286 286 286 286 286 286 286 287 288 287 286 285 285 285 285 285 286 285 285 286 286 286 286 285 284 283 282 282 281 281 280 280 280 279 279 278 278 278 277 276 276 275 275 274 274 274
271 277 274 273 274 278 278 275 275 280 277 276 277 277 275 275 275 277 277 274 275 276 273 276 276 278 283 284 285 286 287 285 286 286 287 287 287 286 286 285 287 286 287 287 288 289 288 288 288 288 288 287 286 285 285 285 285 285 285 286 286 285 285 285 284 283 282 282 281 281 281 281 281 280 279 279 278 278 277 276 275 275 275 274 274 274
274 276 275 275 275 274 274 275 275 276 278 276 275 276 276 275 275 277 277 276 278 275 280 278 277 277 282 285 286 286 287 285 286 286 286 284 284 284 284 284 285 286 286 287 288 288 288 288 288 288 288 288 286 286 285 285 285 284 285 285 286 285 285 285 283 283 282 282 281 282 282 282 281 280 279 279 278 277 277 276 276 275 275 274 274 274
276 273 273 275 274 272 273 273 272 276 274 276 275 275 277 276 277 279 278 275 279 281 281 279 276 279 282 284 286 288 287 284 285 284 283 284 285 284 283 284 285 286 286 287 288 288 288 288 288 288 287 287 287 287 286 286 286 285 285 285 285 285 285 283 284 283 283 282 282 282 282 281 281 280 279 278 278 278 277 277 276 275 274 274 274 274
278 274 279 271 274 272 272 272 270 273 273 274 276 275 275 275 276 277 276 276 276 277 279 279 279 280 286 285 287 287 283 281 282 283 285 285 284 284 284 285 286 286 287 287 288 288 288 288 288 288 288 288 288 287 287 286 286 285 285 285 285 285 284 283 284 283 283 283 283 282 281 281 281 280 279 279 278 278 277 277 276 275 275 274 274 274
276 274 270 269 275 274 272 267 270 266 271 270 272 274 274 274 272 274 276 278 277 279 274 277 276 279 284 280 280 281 281 282 283 285 285 285 285 285 284 285 286 287 287 287 288 288 288 288 288 288 288 288 287 287 286 286 286 285 285 285 285 285 283 283 283 283 283 283 283 282 281 281 280 280 279 279 278 278 277 277 276 275 275 275 274 274
269 272 273 270 274 270 272 267 267 266 271 275 277 275 278 277 275 275 278 277 280 278 276 275 280 282 280 280 282 284 282 284 284 285 287 287 286 284 284 285 286 286 287 287 287 287 288 288 288 288 287 287 288 287 286 285 285 285 286 285 286 284 282 283 283 283 283 283 282 282 281 281 280 280 280 279 279 278 277 276 276 275 275 275 275 274
268 270 269 270 276 273 271 266 268 273 272 270 282 277 280 280 279 280 279 280 280 282 282 282 285 282 281 282 282 283 283 285 284 287 285 285 285 285 285 285 285 286 287 287 287 287 287 288 288 288 287 286 286 286 285 284 284 285 285 284 284 283 283 282 283 282 283 283 282 282 281 281 280 280 280 280 279 278 277 276 276 276 276 276 275 275
270 266 268 266 275 272 272 271 277 270 271 278 279 277 278 278 279 282 281 279 280 281 283 283 284 284 285 284 283 283 283 284 284 284 285 284 283 283 285 286 287 287 286 286 287 287 287 287 286 286 286 286 286 285 285 285 285 284 284 283 283 282 282 281 282 282 282 282 282 281 281 281 280 280 280 279 278 277 277 277 277 276 276 276 276 275
271 272 270 269 266 269 272 266 270 272 275 278 277 278 277 278 278 280 281 282 282 282 282 282 284 285 285 284 283 282 282 284 282 282 283 283 282 284 285 286 286 286 286 286 286 286 286 286 285 285 285 286 285 285 284 284 284 283 284 283 282 282 281 281 281 282 281 282 282 281 281 280 280 280 280 279 278 278 278 278 277 277 277 276 276 276
277 271 271 271 268 273 266 264 277 274 279 281 279 278 278 279 279 280 278 281 281 281 281 282 284 284 283 281 281 282 282 281 283 286 282 283 285 285 285 286 286 286 286 286 286 285 285 285 284 285 285 284 284 284 285 284 284 283 283 283 283 281 281 280 281 282 282 282 282 282 281 280 280 280 279 279 278 278 278 278 278 278 277 276 276 276
276 277 273 276 273 264 272 268 269 270 267 272 278 281 280 280 280 280 282 278 280 279 281 282 281 282 280 280 281 281 280 283 285 282 284 283 284 285 285 285 285 285 285 285 285 285 285 285 285 285 284 284 284 284 284 284 283 283 283 283 283 282 282 281 282 282 282 282 283 282 281 281 280 280 280 279 278 278 279 279 278 278 278 276 276 276
274 274 274 274 270 270 269 269 266 269 273 276 282 285 281 278 281 279 280 277 278 279 280 281 282 280 280 281 282 280 282 281 282 284 286 286 286 284 283 284 285 284 284 284 284 284 285 285 284 283 283 284 285 286 284 283 283 283 283 283 283 282 282 283 283 283 283 283 283 282 282 281 280 280 279 279 279 279 279 279 279 278 276 276 276 276
271 266 270 269 268 265 262 268 269 267 272 285 279 280 280 276 281 281 275 271 283 281 279 281 281 280 281 281 281 281 282 282 282 285 285 286 284 284 282 283 284 284 285 284 284 283 284 284 283 285 285 285 285 285 284 283 283 283 283 283 282 284 284 284 284 284 283 283 283 282 282 280 280 280 279 280 279 279 279 279 278 277 277 277 276 276
273 268 266 276 264 268 274 264 264 273 278 279 279 279 278 277 283 275 274 277 280 278 280 281 279 280 281 281 281 283 281 284 286 285 284 283 283 284 284 283 283 283 284 284 285 284 283 283 283 283 283 284 284 284 284 283 283 284 284 283 285 285 285 284 284 283 283 283 282 282 281 281 279 280 280 279 280 280 279 279 278 278 277 277 276 275
265 263 265 263 264 269 267 272 275 273 279 278 278 280 279 280 274 269 278 278 280 281 280 280 281 281 280 282 282 283 284 284 282 282 282 282 282 282 282 283 283 284 283 283 284 284 284 284 284 284 285 285 284 284 284 283 284 284 284 285 286 285 284 284 283 283 282 282 282 282 281 281 280 279 279 279 278 278 279 279 278 277 277 277 276 275
275 273 270 269 267 264 262 266 267 270 277 282 282 280 281 280 279 279 280 281 280 282 280 279 281 281 281 282 281 282 282 282 281 281 281 281 281 282 282 282 283 283 283 284 284 284 283 283 284 284 284 285 284 284 283 282 283 284 284 286 285 285 284 284 283 282 282 282 282 282 281 281 280 280 279 279 278 277 278 278 277 277 276 275 275 275
276 275 265 265 273 274 266 268 270 279 278 283 287 282 281 282 282 280 281 284 280 280 281 281 281 281 280 282 282 281 281 280 280 280 281 281 281 281 282 282 282 282 283 283 283 283 283 283 284 284 284 284 284 285 284 283 283 284 284 285 285 285 284 283 283 282 282 282 282 282 282 281 281 280 279 278 278 277 277 277 277 277 276 275 275 275
280 278 276 275 277 276 275 278 280 276 277 284 283 282 279 280 279 279 284 283 283 282 280 282 282 280 280 281 281 280 279 279 280 280 280 281 281 281 282 282 282 282 282 282 283 283 283 283 283 283 284 284 284 284 284 283 283 284 284 285 285 285 284 283 282 282 283 283 282 282 282 282 281 281 280 279 277 277 277 277 276 276 277 275 275 274
278 279 274 279 278 277 279 283 281 280 279 280 283 281 281 282 279 279 281 281 281 281 281 282 281 281 281 280 281 279 279 279 279 280 280 280 280 281 281 282 282 283 282 282 283 283 282 283 283 283 283 284 284 284 284 284 282 283 284 285 285 284 283 282 283 283 283 283 283 283 282 281 282 282 281 279 278 277 277 277 277 277 277 276 276 275
277 277 282 280 279 280 278 278 280 284 280 280 283 281 281 281 282 279 280 282 281 280 280 280 280 280 280 280 280 280 279 279 279 280 279 280 280 281 281 281 282 282 282 283 283 282 283 282 283 283 283 283 284 284 284 283 284 283 283 284 284 284 283 283 283 283 283 283 283 283 283 282 283 283 282 281 279 277 277 277 276 276 276 276 276 276
280 278 281 277 276 279 280 279 278 278 278 278 279 281 283 282 281 280 280 280 280 280 280 280 279 279 279 280 279 279 279 279 279 280 280 280 280 281 281 282 282 282 283 283 283 282 282 283 282 283 283 283 284 284 284 284 284 284 284 284 284 283 282 283 283 283 283 283 283 283 283 283 280 281 283 282 281 280 280 278 276 276 277 278 279 278
279 282 276 277 281 280 281 284 284 281 281 280 278 279 280 281 281 281 279 278 278 279 279 279 279 280 280 281 279 279 279 280 280 280 279 280 281 281 282 282 282 281 282 282 282 281 282 281 282 282 282 283 284 284 284 284 284 284 283 284 284 283 282 283 282 282 282 283 284 284 283 283 283 283 282 282 282 280 279 280 281 279 279 279 279 279
280 279 277 278 277 275 279 284 280 281 279 280 280 280 280 278 280 280 279 280 279 280 280 280 281 280 279 280 280 280 280 280 280 280 279 280 280 281 281 282 282 282 282 282 282 281 281 281 281 282 282 283 284 283 283 283 284 284 284 284 284 283 282 282 282 282 283 283 283 284 284 283 283 283 283 282 282 282 283 280 281 282 281 281 282 281
282 281 280 278 278 279 279 280 278 280 278 278 280 280 277 279 280 281 281 280 280 280 279 280 281 282 282 281 280 280 280 280 281 279 280 281 282 281 281 281 282 282 282 282 281 282 282 283 282 281 282 283 283 283 283 283 283 284 284 284 283 283 282 282 282 282 283 283 283 283 283 283 283 283 282 282 282 282 282 282 283 283 283 284 283 282
Wind_Speed
0 10 7 3 1 3 3 1 1 1 2 4 4 5 1 1 3 2 1 1 1 0 2 2 3 5 10 9 8 4 3 3 5 7 7 6 6 6 5 6 6 5 7 2 3 3 2 0 1 1 2 4 3 3 4 4 5 6 7 6 6 5 5 6 6 4 5 3 2 1 2 3 3 3 3 2 2 2 2 1 1 1 0 0 0 1
7 10 5 1 2 1 3 1 3 3 3 2 5 3 1 0 1 1 0 3 4 1 2 0 5 8 9 8 6 2 1 6 8 8 8 8 7 6 6 7 6 6 4 4 2 0 0 0 1 2 3 4 5 4 4 7 7 6 5 7 6 5 5 5 7 6 4 3 5 5 5 3 5 4 4 3 3 3 2 2 1 1 0 0 0 1
10 6 1 1 2 4 5 4 3 3 4 3 1 1 1 0 4 6 1 3 3 0 5 1 6 11 10 7 6 3 5 4 4 6 5 5 6 6 6 7 6 3 5 2 4 3 3 1 1 3 4 4 4 6 8 6 5 5 5 5 5 6 6 5 5 5 3 2 2 3 3 5 2 2 2 3 2 3 3 2 2 1 1 0 0 0
6 1 2 0 3 3 3 4 3 5 6 5 2 2 2 2 3 2 1 4 4 2 2 4 6 11 6 5 7 7 5 4 4 4 7 5 7 8 7 5 5 6 5 6 7 6 4 4 3 3 4 6 4 4 4 5 7 5 6 5 5 6 5 5 4 3 2 3 2 2 3 2 2 2 2 1 1 1 1 3 2 1 1 1 1 1
5 0 1 4 2 1 4 4 4 1 1 1 3 2 0 2 1 2 3 5 3 0 1 4 3 6 5 0 2 0 1 3 4 3 5 5 7 6 5 5 5 8 8 8 6 5 5 5 7 8 7 4 6 6 7 8 8 7 9 8 7 7 6 5 4 5 4 5 4 4 3 3 2 2 1 0 2 3 3 3 2 4 3 2 2 1
3 0 1 2 3 3 1 5 4 1 0 2 0 1 0 1 2 4 5 5 3 1 4 4 6 2 3 5 7 7 6 5 2 3 8 7 5 3 5 9 5 6 5 7 8 9 8 8 6 5 5 6 6 8 9 8 8 7 7 6 6 5 5 6 5 6 6 5 6 5 5 3 2 4 3 7 7 6 5 5 3 3 3 3 2 2
2 1 1 2 6 6 6 3 1 0 3 1 1 0 1 1 1 1 7 1 2 1 5 2 2 6 6 3 1 4 5 9 8 5 9 7 7 5 7 6 6 7 7 6 5 5 5 7 5 6 7 8 8 11 6 5 6 6 6 6 7 7 6 5 5 6 5 5 5 7 7 6 7 7 6 3 3 5 4 3 3 4 3 3 3 2
2 3 5 3 2 3 4 6 1 1 1 0 0 3 3 1 1 2 1 1 0 1 3 6 5 1 7 7 2 3 3 7 8 10 9 9 8 8 7 7 6 7 6 7 8 8 7 6 8 11 11 8 12 9 5 6 5 8 8 7 8 6 6 6 6 7 7 7 6 6 5 5 6 7 7 4 4 2 1 2 3 3 3 3 3 2
2 3 4 4 4 5 2 0 0 0 1 0 1 1 0 0 1 2 1 1 0 0 1 7 4 1 3 7 3 2 1 4 8 10 10 9 8 8 8 8 8 8 7 7 8 8 9 10 10 9 9 10 8 5 7 9 9 7 5 6 5 6 6 6 6 7 7 6 7 7 6 6 6 5 5 2 1 3 2 3 3 3 4 3 3 2
2 1 1 2 2 2 1 0 1 2 1 0 3 3 3 3 3 1 0 1 2 2 2 4 5 0 7 6 6 2 0 6 8 8 9 8 7 7 8 8 7 5 5 5 8 7 7 7 7 6 5 5 7 6 4 4 3 5 5 6 6 8 7 6 7 7 7 6 6 7 6 7 6 4 2 2 3 3 3 4 4 4 5 5 3 3
0 2 4 3 1 1 2 0 1 0 1 1 1 1 2 3 3 2 5 2 2 1 2 2 4 1 3 4 2 1 0 2 3 5 5 6 5 7 7 7 6 6 6 7 7 8 9 6 5 4 7 8 5 4 4 5 5 5 6 7 8 9 6 6 7 7 8 6 6 7 7 8 7 5 4 4 5 4 4 6 5 5 5 4 5 3
0 1 1 0 1 2 2 2 1 1 0 1 0 0 2 1 5 1 3 4 2 2 2 1 1 3 0 5 3 8 4 4 4 4 5 7 8 7 5 6 7 6 6 6 5 8 7 6 6 4 7 8 7 4 6 6 5 6 6 6 8 7 7 7 7 6 7 7 7 6 7 8 8 7 6 8 8 7 7 6 6 5 4 5 5 3
2 2 0 3 1 2 1 2 1 2 2 2 2 3 2 4 4 1 7 2 0 0 0 1 2 1 4 9 4 6 7 6 5 7 7 6 9 8 6 5 4 4 5 6 7 7 6 8 9 7 9 6 7 9 8 8 7 6 6 8 9 11 8 9 7 8 8 7 8 8 8 7 6 7 7 7 7 5 7 6 5 5 6 5 5 6
1 1 2 1 2 1 1 1 2 1 2 2 1 1 3 3 4 0 3 2 4 3 1 1 2 1 5 7 5 6 5 4 5 7 7 8 9 10 9 6 5 5 6 7 7 7 8 9 9 9 8 8 8 8 9 8 8 7 7 8 10 13 8 8 8 9 9 10 9 8 8 8 7 7 7 7 7 6 6 6 7 7 7 7 7 6
1 1 1 2 1 2 1 2 1 1 0 0 1 0 2 5 1 0 1 1 2 5 5 3 1 2 5 1 1 7 7 7 6 6 6 7 9 9 8 8 8 8 7 6 7 9 10 11 10 9 9 9 9 9 8 7 8 7 9 9 12 11 9 10 11 9 11 10 9 8 8 7 6 8 7 8 7 6 7 6 7 6 6 7 6 7
0 3 1 1 1 1 2 1 1 2 1 0 2 2 4 0 3 1 1 2 1 3 5 1 3 3 3 3 6 4 7 6 4 5 2 6 4 4 6 6 7 7 7 5 7 9 10 11 8 8 8 9 8 9 8 8 8 9 11 10 12 14 12 11 11 11 12 11 8 8 9 9 8 7 6 6 6 6 7 7 7 7 7 7 6 5
1 0 0 5 2 2 0 1 0 0 0 1 1 1 1 2 8 7 1 0 1 2 2 1 7 5 7 4 4 7 5 5 5 5 5 6 6 5 7 7 7 7 7 6 8 9 10 7 8 9 9 8 8 8 10 12 11 13 12 11 12 12 9 10 12 13 11 10 9 10 10 9 8 9 9 9 8 8 7 6 7 7 7 6 6 6
3 1 0 1 0 0 1 0 0 0 0 1 1 2 2 1 3 2 0 1 5 2 3 3 2 8 6 0 5 7 9 7 7 6 7 8 5 7 9 8 8 8 7 6 7 7 8 8 9 9 9 10 11 11 11 12 11 11 12 12 13 11 12 12 11 12 11 12 12 11 11 10 11 10 10 9 8 7 6 6 6 5 6 7 6 6
2 2 0 0 1 2 1 0 1 0 0 0 1 1 0 1 1 3 2 3 4 3 5 7 2 6 3 2 5 5 5 7 9 9 8 9 8 7 9 10 9 7 8 9 9 9 9 10 11 11 11 11 10 10 11 10 9 9 9 10 11 14 15 13 10 9 8 9 9 9 11 12 11 10 9 8 7 6 8 9 8 8 8 6 6 6
1 1 1 0 1 1 1 1 0 0 1 1 0 1 1 2 2 1 1 2 4 1 5 5 4 0 5 5 2 5 4 5 7 7 7 9 8 8 8 9 10 10 8 8 9 9 9 9 9 9 10 11 11 11 11 10 6 10 11 10 11 10 8 7 9 10 11 11 10 10 8 9 10 10 10 9 9 9 10 9 9 9 8 9 7 7
1 0 0 0 1 1 0 1 1 5 3 0 2 1 1 2 1 3 2 1 0 3 2 1 6 4 6 6 4 4 4 5 4 6 7 9 9 9 8 9 10 9 9 9 8 9 9 9 9 9 8 8 7 6 7 8 10 11 7 10 11 13 12 11 12 10 12 9 10 10 11 11 10 11 10 9 10 10 10 9 9 9 8 5 8 7
2 0 0 1 1 1 2 0 0 1 0 0 1 1 5 5 1 1 2 1 2 1 2 2 5 8 11 3 6 4 5 4 4 4 8 10 10 10 10 9 6 9 10 8 9 8 9 9 9 8 6 6 6 9 10 10 7 9 11 12 10 9 10 12 11 12 12 10 10 12 12 12 9 9 8 10 10 11 10 10 10 9 7 9 9 8
0 3 5 0 1 1 1 1 1 1 1 1 0 0 3 2 4 3 1 2 2 0 2 1 0 8 5 4 5 6 5 6 6 3 8 10 10 10 10 9 8 6 9 11 10 9 9 9 9 9 9 8 9 10 9 9 10 11 11 9 9 10 14 12 13 10 9 9 10 12 12 10 9 9 10 11 11 12 11 10 10 8 10 10 9 8
4 1 2 1 2 4 2 0 0 2 1 1 0 0 0 1 1 3 1 4 6 1 0 1 1 8 5 2 4 5 6 6 7 4 8 9 8 9 9 10 10 10 9 7 7 8 9 8 8 8 9 9 8 8 10 10 9 9 9 10 9 12 15 12 11 9 9 10 11 11 9 10 10 10 11 12 11 12 12 10 9 8 10 10 8 9
1 1 2 1 1 2 1 1 0 0 1 1 1 1 0 1 3 1 4 0 1 7 6 6 3 2 2 1 3 3 6 7 8 4 5 7 8 7 8 9 8 8 9 10 10 9 9 8 8 9 8 9 9 8 8 9 9 9 10 8 11 13 12 10 8 9 10 10 12 10 11 11 10 11 12 13 11 13 11 10 9 8 10 9 9 10
1 1 1 1 1 0 1 1 1 2 5 2 0 0 2 4 8 2 1 1 0 1 4 2 6 11 8 6 7 4 3 8 10 7 2 4 5 8 9 10 10 8 9 9 9 9 11 9 8 8 8 8 8 8 8 8 9 9 9 11 9 10 9 10 7 9 9 10 11 11 12 12 11 13 14 14 13 13 11 10 10 10 9 9 11 9
2 0 1 2 3 4 2 2 1 2 2 1 1 3 4 0 0 3 5 4 4 4 5 8 7 8 16 12 6 9 8 8 11 11 11 11 10 9 6 8 8 9 8 8 7 8 7 9 11 9 8 7 8 7 8 8 9 8 8 10 9 9 9 8 7 8 9 10 11 10 12 12 14 14 13 13 13 10 9 11 11 10 11 10 10 10
2 0 0 1 3 2 1 4 1 1 1 1 4 3 3 4 4 6 6 5 6 8 5 6 3 2 11 8 8 9 9 7 7 7 9 9 9 10 10 9 10 9 9 9 10 11 11 10 10 10 10 10 9 8 7 7 8 9 8 11 9 7 8 7 6 7 8 9 10 12 13 13 13 11 12 11 10 10 10 10 10 11 10 8 11 11
2 1 0 1 0 1 0 1 1 0 0 2 4 5 7 8 5 9 7 5 8 4 10 1 3 3 9 8 11 12 10 5 10 11 8 8 9 8 7 9 9 9 8 9 9 9 10 11 10 11 11 11 10 10 9 8 7 6 8 9 9 6 8 6 6 8 8 9 11 13 13 10 8 8 9 10 9 10 11 11 10 9 9 10 11 10
2 0 2 0 1 1 3 2 1 4 1 0 4 7 6 10 13 13 8 4 11 9 5 1 2 11 14 13 14 16 8 5 8 7 7 7 7 6 7 7 7 8 8 9 10 10 9 10 10 10 10 11 11 11 10 10 9 7 7 9 7 6 6 4 7 8 9 10 13 11 8 8 7 8 8 9 11 12 11 10 10 9 10 11 12 11
1 1 4 1 1 1 2 2 2 1 3 3 5 5 5 5 5 7 3 2 1 9 13 10 10 15 14 4 10 8 5 4 5 6 7 8 6 7 7 7 8 9 9 9 9 11 11 12 11 11 11 11 11 11 10 9 9 8 8 7 7 7 5 5 7 8 9 12 11 9 7 7 9 7 10 11 10 10 10 11 9 9 11 11 11 12
1 1 1 1 1 2 1 2 3 2 1 4 5 5 6 7 6 5 7 7 6 9 2 1 2 9 11 3 4 5 4 5 7 10 8 5 6 7 7 8 9 10 10 10 10 9 10 11 12 12 12 12 12 11 9 10 10 8 9 8 7 7 4 5 7 9 10 11 9 7 8 9 7 8 10 9 11 10 9 7 8 10 12 11 12 12
1 5 2 1 0 2 2 0 6 3 1 5 7 12 17 8 2 1 3 2 8 5 3 3 10 6 4 1 5 7 5 7 7 7 11 10 7 5 7 9 11 11 10 10 10 10 10 10 10 10 11 10 11 11 11 8 9 9 9 9 9 5 4 6 7 8 10 8 7 8 8 7 8 9 10 10 8 7 6 8 9 12 12 14 12 7
1 3 2 1 0 2 3 6 1 2 2 5 1 1 12 13 15 9 6 12 11 10 8 7 8 3 5 6 5 8 6 7 6 10 3 4 7 8 8 7 7 8 9 8 7 8 10 10 11 10 9 8 9 9 8 7 7 9 8 9 8 6 5 4 6 6 7 6 7 7 6 6 7 10 10 7 7 6 8 9 12 12 11 10 8 11
4 3 2 1 0 2 4 2 1 1 8 2 1 2 0 3 3 13 8 4 6 11 11 13 14 9 11 6 5 4 5 8 10 11 10 5 5 4 7 11 12 11 11 9 10 9 9 10 11 12 12 10 11 10 9 10 7 8 8 7 7 5 5 4 5 5 6 7 6 5 6 6 7 9 9 7 7 7 9 11 12 12 11 9 11 11
5 5 4 1 1 0 1 2 1 3 3 2 2 1 1 1 2 1 6 10 13 14 16 13 15 13 9 8 6 4 6 8 8 6 7 3 3 3 8 9 11 11 12 10 9 10 10 10 11 11 12 9 9 10 7 8 8 8 9 6 5 6 4 4 5 6 5 7 7 6 6 6 7 8 8 7 7 9 11 12 13 13 10 9 10 10
7 5 3 1 0 1 2 1 9 6 7 0 2 2 6 4 6 4 2 3 5 8 10 9 10 9 7 4 3 6 7 3 1 0 2 1 4 6 6 7 7 10 10 10 7 9 8 8 8 10 9 8 8 8 8 8 8 8 8 7 6 5 5 4 5 6 6 7 7 7 6 6 7 8 8 7 8 10 11 12 12 11 8 9 11 11
1 1 3 3 1 3 1 3 5 4 2 6 4 2 4 1 4 1 2 6 1 4 6 7 5 6 5 4 3 5 5 7 12 4 3 4 4 6 8 7 6 7 7 8 9 8 7 7 8 9 8 9 10 7 7 8 8 8 7 8 7 7 7 5 6 6 6 8 8 7 5 6 7 8 8 7 10 11 11 10 9 10 7 10 11 12
5 6 5 4 2 2 2 2 3 2 6 5 2 1 2 4 3 2 3 7 3 4 7 8 6 5 3 3 5 3 7 8 9 9 6 8 9 6 6 8 7 6 6 6 7 10 11 10 8 7 7 6 10 12 10 9 8 8 9 8 9 7 7 8 8 8 8 9 8 7 6 5 6 7 8 8 10 10 11 10 10 9 6 9 9 11
5 5 2 2 1 1 5 3 5 5 2 1 5 2 3 3 4 2 4 5 1 3 5 6 6 4 3 3 1 2 2 8 10 8 5 8 8 8 4 7 10 11 10 8 6 5 7 8 9 11 11 11 11 10 10 9 8 7 8 9 6 8 10 10 10 9 7 8 8 7 7 5 6 7 7 9 9 9 10 8 7 8 8 8 8 9
0 1 3 7 4 3 5 3 4 7 7 6 4 3 2 4 1 1 9 4 3 2 5 6 4 4 3 3 2 4 5 5 6 5 6 6 8 10 6 3 4 6 8 9 10 8 6 6 5 6 6 6 8 8 7 7 7 9 8 7 8 11 10 9 8 8 8 8 8 7 7 6 5 8 8 7 9 9 8 6 7 8 8 9 8 8
1 3 1 4 3 5 5 4 7 7 9 6 0 6 4 4 2 7 5 2 5 1 5 7 4 4 5 5 4 6 6 4 5 5 5 5 5 7 7 7 7 6 4 5 8 8 10 9 8 8 8 6 7 7 7 7 8 8 9 9 12 11 8 8 8 8 8 8 8 7 7 7 6 5 7 7 6 8 9 7 6 8 9 7 7 9
10 7 7 6 3 3 2 0 3 3 1 6 10 2 0 3 7 4 2 1 3 2 6 5 7 5 4 4 5 5 5 5 5 5 5 6 5 6 7 8 8 9 10 10 11 10 9 10 11 10 8 9 7 7 6 7 8 8 8 11 11 9 8 8 8 8 8 8 9 8 8 7 7 7 5 6 6 6 9 8 6 7 7 7 8 8
5 2 1 4 7 7 4 4 5 8 4 8 12 8 7 7 4 7 5 0 3 4 5 4 5 7 4 5 5 5 5 4 5 3 5 5 4 5 5 5 5 6 7 7 5 6 7 8 8 9 9 9 8 9 8 9 10 9 10 12 10 9 8 7 7 7 7 8 8 9 8 8 8 7 6 6 6 6 7 9 7 7 7 6 7 8
10 5 8 4 7 7 9 10 8 3 4 9 5 0 0 2 2 7 2 1 3 4 5 2 4 3 4 4 4 4 3 2 3 4 2 5 6 6 7 7 6 7 7 8 9 8 7 8 10 10 10 9 8 8 8 7 9 11 13 12 9 11 11 11 9 8 9 9 8 8 7 7 7 7 6 6 5 6 7 7 6 7 7 6 7 7
2 1 2 3 5 5 6 10 3 1 2 6 7 5 1 1 2 2 4 2 4 4 6 4 2 3 1 3 2 1 2 3 4 5 4 4 5 6 5 6 7 6 6 6 7 8 6 7 7 8 11 12 10 10 8 8 6 10 10 10 10 10 10 10 11 11 11 10 10 10 8 9 8 7 7 6 5 5 6 7 7 7 8 7 7 7
3 2 1 2 2 1 5 3 4 8 4 5 5 1 1 3 4 4 4 4 2 2 1 3 3 2 2 1 1 2 3 2 3 4 3 4 5 5 6 6 6 6 6 8 8 7 9 7 10 11 11 12 10 9 9 8 7 6 6 8 9 9 10 10 10 11 10 11 10 10 9 10 10 10 9 8 7 5 6 6 6 6 7 8 8 8
2 4 3 4 2 5 7 2 4 4 4 3 2 3 2 1 1 3 2 1 0 1 0 1 0 0 1 1 1 1 3 2 1 4 4 4 4 5 5 6 7 8 9 6 7 8 7 9 8 10 10 11 11 10 10 10 9 8 8 8 8 8 9 10 10 10 10 10 8 8 8 9 11 11 9 9 8 9 9 6 5 6 7 8 9 9
2 6 4 5 6 7 7 12 12 2 5 5 3 6 4 2 3 3 0 1 2 2 2 2 1 1 1 0 1 1 2 3 1 2 3 4 5 4 5 6 6 5 6 8 8 6 7 7 9 9 9 10 9 9 9 9 8 8 8 9 9 8 9 10 10 10 10 10 9 10 9 9 9 9 9 9 9 7 6 8 9 7 8 8 8 8
5 5 3 3 1 4 9 9 2 1 6 1 2 5 4 2 1 1 1 2 2 2 2 3 4 2 2 1 2 2 2 3 3 2 4 3 4 5 6 7 6 6 7 6 5 5 6 6 6 8 10 10 9 9 9 9 8 8 8 10 10 10 11 10 9 8 9 8 9 9 10 9 9 9 9 10 10 11 10 6 10 10 9 10 10 14
8 9 8 6 7 8 8 8 3 2 2 2 6 4 2 0 2 2 1 2 1 1 1 3 4 4 5 4 2 3 3 2 4 3 4 4 5 4 4 5 7 8 9 8 8 10 9 8 7 7 9 9 8 9 9 9 8 8 11 11 11 11 11 10 9 8 8 9 8 10 10 9 10 10 9 9 10 11 11 12 8 9 14 17 17 16
Wind_Direction
350 76 60 101 271 278 277 203 123 140 130 107 92 93 118 216 290 284 305 292 348 314 258 259 284 271 276 262 266 285 305 228 261 259 255 261 264 265 265 263 268 261 244 260 277 285 289 285 104 137 148 143 131 144 158 161 177 177 172 164 179 183 163 148 143 145 151 131 114 96 190 200 209 194 207 204 222 210 202 178 240 242 133 41 344 78
69 71 8 251 250 277 288 196 121 72 42 110 108 85 66 122 302 194 129 346 321 47 286 45 313 289 260 274 264 302 119 238 222 236 253 255 249 254 253 269 261 251 296 298 287 288 356 138 126 132 158 155 150 205 180 188 190 186 178 183 182 175 181 178 172 173 176 175 178 167 190 179 182 201 190 214 228 214 199 196 225 228 131 33 313 119
43 81 218 280 136 95 53 80 112 127 102 28 89 172 66 277 252 280 256 338 324 79 264 356 349 285 279 272 280 228 200 244 229 207 225 216 256 255 255 251 263 290 265 288 262 277 271 243 220 178 192 213 210 181 193 193 177 188 193 202 188 187 186 194 180 159 182 188 158 147 180 163 186 244 211 200 191 184 184 214 224 211 259 253 221 299
59 340 295 344 140 99 32 41 71 65 64 57 2 29 296 279 19 308 304 1 340 51 314 316 309 285 306 278 261 252 211 259 252 233 248 222 239 245 241 233 238 232 234 236 223 228 240 229 228 226 215 214 224 195 200 198 197 195 202 199 195 198 194 187 191 169 138 114 115 86 130 124 133 197 183 162 73 146 161 228 219 231 217 244 243 241
134 198 151 72 97 134 98 31 51 54 10 12 91 112 45 343 331 191 281 326 299 329 10 303 292 314 342 17 240 4 315 301 297 320 277 257 235 258 292 287 227 225 210 220 237 253 249 232 223 211 212 189 209 212 205 201 200 198 201 198 193 191 191 188 184 148 136 108 83 88 69 73 63 43 50 168 235 209 211 203 216 222 207 228 243 241
32 258 105 48 51 63 73 26 28 97 70 341 236 117 155 145 306 316 315 5 19 328 29 33 8 320 299 289 247 287 340 318 303 324 272 268 273 270 253 248 247 242 232 216 217 216 215 218 230 237 227 210 220 222 218 205 205 198 200 191 195 191 191 188 180 160 154 153 146 144 140 174 217 229 215 218 215 209 212 211 201 203 207 216 236 252
137 1 124 155 99 75 74 102 300 111 145 72 292 181 160 152 105 3 342 44 11 54 340 24 86 271 329 321 302 315 329 293 302 287 273 280 272 261 246 244 236 229 230 243 262 269 256 240 237 242 229 221 219 229 213 202 209 208 201 195 192 191 189 188 180 174 161 154 170 181 189 193 197 214 237 227 215 197 214 194 190 206 212 213 219 228
18 349 34 37 58 67 54 41 347 118 85 18 333 117 105 77 19 335 39 46 189 326 271 39 69 232 316 296 280 293 314 293 301 285 271 263 259 254 249 243 236 231 225 215 228 235 239 236 218 224 225 219 221 223 189 208 204 204 204 192 197 196 190 189 177 180 178 175 187 194 208 209 215 214 234 211 208 192 179 183 220 206 220 220 219 225
79 337 28 10 63 62 73 181 331 129 108 254 216 177 118 107 160 97 62 93 96 330 286 344 345 74 265 264 309 343 329 311 284 271 269 259 251 248 248 246 237 231 223 213 223 230 226 226 226 229 233 229 234 223 204 208 208 203 198 195 194 202 196 191 187 181 191 186 187 195 196 222 229 225 240 211 193 175 187 201 231 216 223 225 236 233
326 125 257 120 98 95 215 314 187 152 50 277 135 104 85 70 74 54 96 35 337 54 300 327 355 45 288 277 344 327 270 282 264 269 271 263 255 251 247 250 245 242 237 229 233 240 244 241 245 244 261 273 238 232 234 232 200 198 186 195 196 210 202 193 194 190 193 194 182 189 200 212 230 219 224 164 201 194 190 212 215 215 217 221 232 239
176 350 186 69 79 157 147 353 138 109 104 118 128 49 5 37 17 22 64 89 53 33 266 266 316 82 301 281 253 84 243 208 279 307 287 290 278 261 248 244 246 236 233 232 232 238 244 244 252 262 251 250 262 236 220 222 210 195 194 198 204 213 201 195 198 190 199 197 191 198 200 206 213 208 193 200 226 213 204 219 220 210 216 213 222 228
20 6 41 347 35 74 111 77 32 82 31 108 75 49 31 329 358 29 340 30 77 297 258 263 305 315 318 299 324 241 280 236 215 255 284 304 309 293 264 248 239 240 241 245 241 250 247 259 253 245 254 248 249 238 225 220 206 204 203 198 212 217 207 203 201 197 205 199 206 208 201 206 209 194 196 206 216 207 212 212 218 212 212 225 227 228
28 28 221 347 211 95 90 92 344 12 12 70 57 31 61 283 31 313 14 7 355 185 181 342 340 19 229 226 254 293 273 280 230 231 251 280 298 300 292 277 274 255 258 251 243 243 246 236 239 233 241 245 240 228 223 217 206 207 205 202 208 222 206 206 197 202 205 205 210 206 207 213 204 203 206 212 219 207 211 207 214 202 216 213 225 225
284 163 32 276 68 356 133 93 332 54 354 67 75 99 64 32 36 353 274 223 299 301 286 6 286 250 255 288 238 244 257 229 250 241 243 252 261 278 284 292 289 263 234 237 237 239 238 234 233 228 230 229 232 229 223 215 207 206 207 206 208 226 203 203 200 205 206 213 213 207 208 209 203 211 209 216 215 212 208 201 210 208 209 210 218 214
84 334 304 23 22 19 48 86 157 174 104 136 165 90 171 139 145 13 244 338 257 248 277 288 26 238 20 238 214 229 260 289 267 262 258 253 256 263 277 278 273 274 260 234 236 233 231 234 228 228 225 227 226 225 222 215 214 201 212 206 214 224 211 200 207 203 211 214 212 209 209 210 204 213 212 218 213 208 205 206 209 212 208 211 218 213
197 202 287 289 255 340 82 270 114 96 62 217 168 101 60 60 148 88 210 163 257 337 343 332 216 188 200 277 286 289 296 285 296 280 288 280 266 278 288 268 260 258 260 240 240 245 242 237 235 232 233 230 228 225 220 216 210 208 217 210 214 217 212 202 204 208 210 213 206 208 208 212 209 214 215 224 219 217 206 208 206 213 209 214 213 212
4 339 314 321 47 67 225 194 359 220 136 213 103 40 162 132 95 102 71 87 93 59 252 230 312 296 292 318 291 338 2 330 344 322 333 304 303 320 286 273 267 261 257 249 240 245 251 248 238 233 232 233 229 226 220 217 207 208 210 208 218 223 218 208 208 210 207 210 203 212 210 208 209 211 213 216 218 215 209 209 211 212 214 209 210 213
147 217 6 92 314 310 282 150 83 225 229 77 52 196 115 130 130 125 255 345 60 96 265 38 303 306 19 248 323 357 15 327 340 329 305 295 292 295 275 272 267 264 263 268 262 256 254 253 248 241 236 232 228 223 225 224 214 212 211 207 213 217 217 219 211 210 206 205 209 212 210 211 210 211 216 214 218 209 206 213 214 212 213 213 209 205
100 70 313 321 218 254 14 337 338 251 356 155 154 155 56 273 47 332 90 11 351 353 303 315 276 243 198 275 347 335 334 315 322 324 334 327 322 291 290 291 288 286 293 283 276 270 260 249 245 241 238 236 233 233 230 232 218 215 217 216 212 217 215 215 210 215 217 210 213 211 210 207 209 212 212 212 210 203 210 214 211 210 215 208 201 205
13 142 280 344 111 328 2 67 285 283 21 73 331 15 3 94 128 54 123 174 120 261 32 296 28 256 210 223 215 261 271 278 297 324 317 308 299 297 297 297 297 302 292 283 280 278 274 273 265 259 254 250 240 235 235 234 225 222 220 215 220 227 226 215 210 206 214 213 214 219 213 216 212 210 209 206 202 208 213 216 209 211 210 212 200 205
83 359 170 295 280 330 236 327 215 159 162 325 42 344 8 43 217 110 35 80 217 169 168 221 334 282 266 213 174 241 254 262 249 282 294 296 302 301 288 286 295 294 294 289 282 282 280 275 274 267 263 266 274 267 258 241 231 232 227 226 222 218 219 218 218 205 216 203 213 215 216 214 209 214 208 207 206 212 216 214 211 211 211 195 211 198
74 10 164 300 31 222 215 114 207 142 74 168 147 191 176 105 99 129 267 26 70 77 218 116 267 272 272 176 204 220 247 257 256 236 282 291 295 298 300 298 288 294 294 287 288 285 284 283 278 276 269 264 263 258 250 245 243 240 228 226 225 224 227 222 221 212 215 207 207 210 217 218 215 214 207 211 211 216 216 214 212 208 197 211 213 198
136 139 96 102 189 219 253 35 63 107 95 135 164 83 136 113 105 92 98 259 43 8 108 151 106 275 241 207 213 231 260 259 269 243 272 286 292 294 296 292 292 267 273 291 293 291 285 280 280 281 276 268 255 256 254 249 235 237 236 231 225 219 230 219 223 214 211 209 210 215 215 212 212 209 210 212 217 219 218 217 213 201 206 213 212 206
114 68 56 308 315 313 334 337 33 42 139 40 21 33 109 193 189 172 169 176 137 164 45 7 224 252 282 233 240 252 267 277 280 241 261 283 290 294 296 305 310 316 310 294 288 283 280 285 289 290 286 278 270 261 254 250 249 246 242 233 225 225 232 222 220 210 204 212 217 216 211 213 212 207 211 216 219 222 220 217 215 204 213 216 209 212
84 308 120 46 358 339 345 2 4 280 70 160 207 218 228 70 64 157 101 48 99 216 167 120 238 290 273 319 284 274 295 302 298 274 213 275 296 294 304 308 310 311 310 315 315 309 304 302 300 292 288 282 278 270 261 258 252 248 247 239 231 234 234 228 215 206 209 210 217 213 212 216 211 214 214 218 219 224 220 217 214 208 214 213 217 218
88 214 104 139 146 16 257 317 263 251 225 204 91 86 249 134 137 113 189 29 195 275 129 166 253 252 271 298 312 308 326 329 326 330 280 212 252 299 316 316 318 320 316 314 314 323 324 313 300 297 291 286 277 271 271 262 255 253 251 246 239 244 240 232 212 212 210 210 215 217 215 216 212 218 219 219 221 221 217 215 214 213 215 210 220 218
141 62 89 150 147 184 198 213 256 97 63 210 235 168 201 137 105 95 102 98 209 185 189 237 198 299 310 305 332 321 334 326 320 325 329 328 325 320 310 313 318 316 310 310 306 299 308 329 327 314 301 284 282 276 269 268 267 259 255 257 245 239 243 240 218 217 215 215 217 221 220 217 218 217 218 219 221 219 214 215 215 213 217 209 216 217
72 68 255 135 199 197 179 170 287 291 193 220 141 221 193 162 179 138 159 215 165 98 295 251 198 181 264 290 302 309 309 311 297 297 312 317 317 316 310 309 312 321 328 332 337 342 337 324 323 327 323 320 309 295 280 268 261 262 258 259 255 238 235 233 219 224 223 220 224 226 226 222 222 219 221 221 220 219 219 217 215 216 217 208 216 219
147 150 232 111 276 114 359 268 313 51 219 189 195 156 183 191 166 183 225 197 155 176 222 244 147 200 262 274 284 288 281 285 291 296 300 293 289 298 317 325 324 321 321 330 327 328 330 328 323 321 323 321 320 316 307 296 283 269 264 259 263 252 240 222 216 226 225 227 231 232 230 230 226 225 224 221 221 220 221 219 218 216 213 215 222 222
97 91 188 125 261 4 348 345 323 194 233 253 214 204 197 170 201 206 222 192 190 230 268 282 255 260 263 267 277 274 292 287 290 304 302 309 309 315 322 320 321 322 327 327 325 324 321 319 319 319 320 322 325 321 318 312 303 291 279 280 272 259 253 198 227 226 229 231 235 240 238 234 231 225 221 222 223 224 222 220 218 215 217 221 223 224
104 251 114 204 13 318 327 331 38 104 156 242 251 223 202 207 225 233 280 266 17 297 277 278 281 284 279 230 250 281 320 323 312 309 305 297 308 326 326 319 322 322 321 321 322 324 323 322 323 325 326 325 325 321 314 306 301 302 295 283 281 268 248 204 233 230 233 240 239 240 237 233 234 226 228 227 230 228 222 222 216 219 224 226 223 224
27 194 63 78 21 316 301 23 309 29 273 226 279 252 194 165 208 208 197 209 163 217 87 75 281 259 267 342 297 278 314 342 325 310 305 304 324 331 330 321 318 317 319 320 319 320 322 323 324 323 321 321 320 318 317 317 316 314 303 298 286 273 234 211 227 234 238 242 247 238 234 236 236 232 236 231 233 231 229 225 222 226 227 228 228 226
149 129 116 97 74 261 249 112 305 11 93 334 273 223 196 205 216 329 293 248 221 140 148 213 232 217 230 40 354 311 347 331 324 307 306 323 324 320 311 313 314 314 317 318 320 323 322 321 316 312 314 316 315 317 316 317 313 307 304 303 292 290 243 229 229 237 244 246 243 243 238 237 236 241 242 237 239 236 230 227 231 234 232 232 231 226
72 100 121 208 172 253 278 311 274 17 359 241 249 144 158 183 201 203 226 211 211 176 209 198 241 299 303 290 266 279 329 307 295 280 258 258 292 310 313 307 304 308 312 316 318 318 317 318 317 314 310 303 301 305 306 305 291 292 295 292 298 298 277 255 256 247 259 261 251 249 244 239 239 245 246 242 235 228 229 227 233 236 236 241 233 229
133 86 122 168 102 278 320 353 34 294 237 239 322 311 331 18 197 205 238 245 219 222 261 284 272 266 257 257 262 290 268 269 273 275 298 261 228 249 309 325 328 325 319 322 328 326 318 313 311 315 319 325 323 317 323 321 319 313 311 311 311 306 297 283 274 272 264 266 265 256 250 243 242 249 251 241 231 227 231 232 240 238 236 232 234 232
156 122 170 44 119 35 41 41 96 241 236 308 315 353 303 137 186 180 295 259 216 207 210 233 255 263 277 293 317 282 268 278 294 270 248 251 208 312 344 326 318 321 322 323 324 320 317 316 313 311 311 315 320 319 319 309 313 319 314 316 313 314 310 296 289 282 284 277 272 262 252 244 248 250 250 243 233 232 237 237 238 241 236 232 239 237
140 106 104 100 248 206 190 155 231 299 322 344 353 224 177 175 171 164 214 280 212 195 175 214 248 265 277 287 290 301 300 291 293 277 204 201 5 349 326 306 302 306 309 314 317 306 301 301 307 308 311 318 320 321 320 318 322 319 319 331 335 332 317 314 300 292 285 279 275 267 252 239 243 248 248 241 238 240 242 242 245 245 232 237 240 240
23 154 226 126 273 121 130 349 344 13 318 280 243 269 170 166 149 189 128 284 291 217 201 190 225 253 279 309 315 300 314 4 336 295 251 300 341 345 324 313 306 302 310 310 314 312 316 319 321 323 331 326 325 326 328 330 330 328 334 342 344 347 338 331 312 300 294 287 286 279 264 247 241 249 251 245 242 245 249 246 249 249 227 230 242 243
29 77 106 138 144 67 72 144 221 178 247 210 241 187 190 180 146 148 44 291 269 199 197 182 223 255 252 281 300 345 30 358 302 298 313 333 337 348 326 313 312 307 306 309 314 318 323 326 322 308 319 332 342 340 339 337 335 340 348 348 347 347 344 339 326 320 312 304 297 290 275 259 247 247 250 250 251 249 254 250 247 251 228 234 239 248
40 354 23 43 86 174 133 123 244 203 226 286 220 232 200 156 144 63 335 279 262 215 185 168 215 244 266 246 217 17 9 324 299 300 332 328 321 313 301 314 324 329 326 324 315 304 303 312 336 350 355 353 340 331 336 338 341 348 353 349 342 355 355 345 333 319 310 303 302 298 292 274 262 257 252 255 259 258 252 256 259 251 241 242 237 247
139 3 43 199 167 179 159 260 328 295 270 249 233 201 169 166 146 196 222 232 241 197 178 176 203 225 210 243 188 315 225 215 263 290 320 315 328 322 323 311 287 298 306 320 320 328 329 328 330 327 321 322 323 330 333 341 348 357 354 347 1 3 348 332 324 324 321 315 312 310 302 293 270 272 268 258 263 269 272 260 255 261 252 253 251 249
350 98 311 87 117 161 193 180 235 251 242 174 274 152 176 113 210 205 232 200 136 198 194 186 214 233 196 220 219 218 254 275 298 304 308 307 290 283 289 305 323 328 307 298 309 338 343 342 346 347 347 345 342 342 346 352 0 356 354 360 5 349 332 331 332 329 329 327 322 317 314 308 299 277 276 282 279 279 277 273 262 262 263 264 262 260
188 144 195 170 189 71 47 54 0 323 278 125 131 72 212 155 231 201 163 225 189 152 167 218 205 246 184 252 232 236 267 293 295 291 294 298 304 309 317 326 335 332 331 338 339 348 351 340 342 340 335 331 343 350 352 360 3 359 353 8 351 336 334 335 334 336 334 332 333 331 325 319 313 305 296 286 278 275 278 283 280 270 268 268 269 266
205 145 222 256 189 148 156 157 203 212 201 191 150 174 213 200 170 164 131 161 213 182 169 200 231 221 208 215 262 280 274 278 302 300 314 305 312 314 319 323 325 326 326 322 309 320 341 334 333 338 338 339 346 354 358 7 1 357 2 359 338 335 335 339 339 332 337 339 337 334 333 329 321 312 302 290 288 281 279 284 280 277 273 268 265 273
207 181 176 170 209 149 193 214 242 233 194 212 196 192 222 220 157 171 157 158 159 234 200 163 238 245 204 205 231 234 272 252 253 284 288 293 310 315 321 323 319 318 321 324 325 332 345 343 332 330 336 343 349 355 357 1 2 357 2 346 340 344 344 340 340 343 344 344 337 334 328 326 324 319 312 304 287 287 286 283 281 284 276 264 265 258
314 187 194 89 245 268 264 219 218 312 250 261 247 203 194 225 237 158 147 152 237 213 177 190 232 236 233 193 194 276 211 268 316 312 312 308 309 306 315 322 330 332 330 328 332 343 334 330 331 341 346 344 355 353 355 354 5 3 343 334 343 342 342 340 344 348 346 342 342 339 334 334 332 327 321 311 290 272 271 276 288 281 286 279 267 262
245 166 151 219 272 86 264 352 188 236 225 234 234 320 229 226 214 179 185 209 219 184 199 232 222 244 244 158 194 230 269 285 298 295 305 315 318 317 322 324 321 325 327 334 327 335 342 348 348 349 348 343 345 349 346 349 353 349 335 341 340 343 343 342 346 343 342 343 339 338 342 344 341 337 333 328 319 290 282 283 276 275 282 281 278 275
280 177 156 221 150 178 231 231 241 249 246 251 222 256 240 187 240 227 210 231 105 29 228 251 141 18 153 103 192 195 264 290 344 317 323 316 310 313 315 323 325 329 330 329 327 343 343 350 347 341 342 340 339 344 343 346 348 345 346 345 344 343 342 344 345 342 338 336 337 334 337 337 331 332 329 328 328 323 317 291 261 276 275 282 288 287
164 127 216 170 184 272 312 281 256 225 274 271 267 239 230 198 175 156 132 45 93 83 6 7 153 163 131 356 134 125 25 345 351 307 301 307 316 321 322 318 318 312 312 330 333 343 339 335 338 337 337 331 331 335 336 336 337 339 346 346 346 346 346 344 339 338 337 339 340 340 339 334 333 330 327 323 321 308 281 295 305 280 269 253 248 258
102 203 202 110 245 277 216 239 118 237 283 273 242 211 217 222 158 112 90 64 40 53 43 71 53 63 116 81 102 94 57 325 326 347 322 298 295 308 326 329 327 328 326 325 323 329 337 340 339 334 334 328 333 334 334 334 336 341 350 348 347 346 346 343 338 338 337 338 336 334 335 333 331 330 328 327 323 323 318 273 249 264 279 287 269 260
186 192 149 179 171 235 247 242 204 154 142 227 192 208 218 165 138 132 119 115 97 111 166 115 86 50 35 18 36 71 27 355 330 344 337 342 323 319 317 329 338 337 337 337 342 345 348 344 342 336 333 330 333 333 334 336 338 351 354 350 343 344 341 339 339 334 330 334 335 333 332 329 329 328 326 326 325 324 320 321 312 258 255 265 275 269